�������l�o���
Date,Time,MP-1(��Sv/h),MP-2(��Sv/h),MP-3(��Sv/h),MP-4(��Sv/h),MP-5(��Sv/h),MP-6(��Sv/h),MP-7(��Sv/h),MP-8(��Sv/h),����,����(m/s),���J
2020/07/11,00:00,0.658,0.933,0.593,1.132,0.799,0.390,0.667,0.627,�k�k��,2.6,��
2020/07/11,00:10,0.655,0.934,0.594,1.131,0.799,0.390,0.666,0.630,�k�k��,1.9,��
2020/07/11,00:20,0.655,0.934,0.593,1.132,0.799,0.389,0.668,0.628,�k�k��,1.5,��
2020/07/11,00:30,0.657,0.931,0.595,1.130,0.801,0.391,0.667,0.627,�k�k��,1.5,��
2020/07/11,00:40,0.657,0.935,0.592,1.131,0.801,0.389,0.669,0.629,�k�k��,1.7,��
2020/07/11,00:50,0.658,0.933,0.593,1.132,0.799,0.390,0.668,0.628,�k�k��,1.2,��
2020/07/11,01:00,0.659,0.934,0.593,1.132,0.801,0.391,0.666,0.628,���k��,0.6,��
2020/07/11,01:10,0.657,0.935,0.593,1.135,0.798,0.389,0.668,0.629,��,0.9,��
2020/07/11,01:20,0.658,0.934,0.594,1.132,0.799,0.389,0.668,0.628,�k�k��,0.9,��
2020/07/11,01:30,0.656,0.933,0.592,1.133,0.801,0.390,0.667,0.629,�k�k��,0.8,��
2020/07/11,01:40,0.657,0.933,0.593,1.131,0.799,0.390,0.667,0.629,�k�k��,0.9,��
2020/07/11,01:50,0.658,0.932,0.593,1.131,0.800,0.392,0.669,0.629,�k��,0.6,��
2020/07/11,02:00,0.659,0.934,0.592,1.131,0.800,0.389,0.668,0.628,���k��,1.1,��
2020/07/11,02:10,0.656,0.932,0.592,1.133,0.800,0.392,0.666,0.628,�k��,1.2,�L
2020/07/11,02:20,0.656,0.934,0.594,1.129,0.801,0.390,0.669,0.629,�k�k��,1.2,�L
2020/07/11,02:30,0.656,0.934,0.594,1.131,0.800,0.390,0.669,0.628,-,CALM,��
2020/07/11,02:40,0.657,0.935,0.592,1.136,0.802,0.389,0.666,0.629,�k�k��,0.6,�L
2020/07/11,02:50,0.657,0.935,0.593,1.132,0.800,0.389,0.669,0.629,�k��,0.8,�L
2020/07/11,03:00,0.658,0.934,0.593,1.130,0.800,0.390,0.667,0.628,��,1.1,�L
2020/07/11,03:10,0.655,0.932,0.593,1.131,0.800,0.390,0.667,0.630,�쓌,1.9,�L
2020/07/11,03:20,0.655,0.933,0.594,1.131,0.800,0.391,0.667,0.628,��쓌,2.3,�L
2020/07/11,03:30,0.655,0.930,0.593,1.131,0.799,0.390,0.667,0.628,��쓌,0.9,�L
2020/07/11,03:40,0.656,0.928,0.593,1.130,0.798,0.391,0.668,0.625,�쓌,0.6,�L
2020/07/11,03:50,0.657,0.929,0.591,1.129,0.798,0.389,0.667,0.627,��쓌,1.2,�L
2020/07/11,04:00,0.657,0.930,0.591,1.129,0.796,0.389,0.665,0.627,��,1.7,�L
2020/07/11,04:10,0.657,0.928,0.591,1.131,0.795,0.390,0.665,0.627,�쓌,1.4,�L
2020/07/11,04:20,0.654,0.928,0.593,1.131,0.798,0.390,0.666,0.627,��쐼,0.9,�L
2020/07/11,04:30,0.656,0.929,0.591,1.129,0.796,0.389,0.667,0.627,��,0.6,��
2020/07/11,04:40,0.655,0.931,0.591,1.129,0.797,0.390,0.667,0.629,-,CALM,�L
2020/07/11,04:50,0.657,0.930,0.590,1.130,0.799,0.391,0.667,0.628,-,CALM,��
2020/07/11,05:00,0.654,0.930,0.592,1.131,0.796,0.389,0.666,0.629,��쐼,1.2,��
2020/07/11,05:10,0.657,0.929,0.592,1.130,0.797,0.390,0.666,0.627,�쓌,0.9,��
2020/07/11,05:20,0.655,0.932,0.592,1.129,0.797,0.391,0.666,0.627,�쓌,1.7,��
2020/07/11,05:30,0.656,0.929,0.591,1.129,0.798,0.388,0.666,0.627,��,1.7,��
2020/07/11,05:40,0.656,0.930,0.592,1.131,0.797,0.390,0.666,0.628,��,4.5,��
2020/07/11,05:50,0.654,0.928,0.592,1.130,0.797,0.389,0.667,0.628,-,CALM,�L
2020/07/11,06:00,0.656,0.929,0.592,1.131,0.796,0.391,0.666,0.627,�쓌,1.1,��
2020/07/11,06:10,0.654,0.928,0.593,1.130,0.798,0.391,0.666,0.626,��,2.3,��
2020/07/11,06:20,0.655,0.930,0.593,1.130,0.799,0.390,0.666,0.627,��,3.3,��
2020/07/11,06:30,0.655,0.928,0.592,1.132,0.797,0.390,0.665,0.626,��,4.3,��
2020/07/11,06:40,0.655,0.927,0.592,1.131,0.797,0.388,0.664,0.627,��,4.1,��
2020/07/11,06:50,0.654,0.929,0.591,1.131,0.794,0.390,0.666,0.626,��,4.0,��
2020/07/11,07:00,0.657,0.928,0.591,1.128,0.797,0.389,0.665,0.627,��,3.7,��
2020/07/11,07:10,0.656,0.928,0.590,1.130,0.795,0.391,0.666,0.627,��,2.5,��
2020/07/11,07:20,0.654,0.928,0.590,1.129,0.798,0.391,0.664,0.626,��쐼,1.7,��
2020/07/11,07:30,0.652,0.928,0.592,1.131,0.796,0.390,0.666,0.627,��쐼,1.9,��
2020/07/11,07:40,0.654,0.930,0.592,1.128,0.798,0.391,0.666,0.628,��,2.3,��
2020/07/11,07:50,0.654,0.928,0.591,1.130,0.797,0.391,0.665,0.627,��,1.5,��
2020/07/11,08:00,0.655,0.926,0.590,1.129,0.798,0.391,0.665,0.625,��쓌,0.8,��
2020/07/11,08:10,0.655,0.930,0.590,1.131,0.797,0.390,0.665,0.628,��,3.0,��
2020/07/11,08:20,0.654,0.927,0.591,1.132,0.800,0.390,0.665,0.627,��,2.2,��
2020/07/11,08:30,0.655,0.928,0.591,1.131,0.798,0.391,0.664,0.627,��쓌,2.5,��
2020/07/11,08:40,0.654,0.929,0.591,1.130,0.798,0.389,0.664,0.627,��쓌,4.1,��
2020/07/11,08:50,0.656,0.928,0.592,1.128,0.798,0.390,0.666,0.627,��,4.7,�L
2020/07/11,09:00,0.657,0.928,0.590,1.132,0.797,0.390,0.666,0.627,��,5.1,��
2020/07/11,09:10,0.658,0.927,0.590,1.131,0.800,0.391,0.666,0.627,��,3.8,��
2020/07/11,09:20,0.657,0.928,0.591,1.131,0.800,0.391,0.667,0.626,��쓌,3.1,��
2020/07/11,09:30,0.658,0.930,0.592,1.131,0.799,0.391,0.666,0.626,��,3.4,��
2020/07/11,09:40,0.657,0.931,0.591,1.132,0.798,0.392,0.668,0.627,��,4.5,��
2020/07/11,09:50,0.658,0.930,0.592,1.130,0.800,0.393,0.666,0.626,��쐼,5.3,�L
2020/07/11,10:00,0.658,0.930,0.592,1.132,0.798,0.391,0.668,0.626,��쐼,4.7,�L
2020/07/11,10:10,0.656,0.930,0.593,1.131,0.798,0.392,0.668,0.625,��쐼,6.1,��
2020/07/11,10:20,0.657,0.929,0.591,1.131,0.797,0.392,0.667,0.626,��,6.1,��
2020/07/11,10:30,0.657,0.930,0.591,1.130,0.801,0.390,0.667,0.627,��,5.8,��
2020/07/11,10:40,0.658,0.932,0.592,1.132,0.800,0.393,0.666,0.626,��쐼,4.8,��
2020/07/11,10:50,0.658,0.933,0.592,1.128,0.801,0.391,0.667,0.627,��쐼,6.0,��
2020/07/11,11:00,0.657,0.931,0.592,1.132,0.800,0.393,0.667,0.627,��쐼,6.3,��
2020/07/11,11:10,0.656,0.934,0.594,1.130,0.802,0.393,0.666,0.627,��,6.2,�L
2020/07/11,11:20,0.660,0.932,0.593,1.134,0.801,0.393,0.667,0.628,��쐼,5.7,�L
2020/07/11,11:30,0.659,0.932,0.595,1.133,0.800,0.394,0.668,0.627,��쐼,6.0,��
2020/07/11,11:40,0.658,0.935,0.594,1.133,0.804,0.392,0.668,0.626,��쐼,6.5,��
2020/07/11,11:50,0.659,0.934,0.595,1.133,0.803,0.393,0.669,0.628,��,6.7,��
2020/07/11,12:00,0.661,0.935,0.594,1.133,0.801,0.394,0.667,0.628,��쐼,6.2,��
2020/07/11,12:10,0.660,0.935,0.594,1.131,0.803,0.393,0.669,0.628,��쐼,6.4,��
2020/07/11,12:20,0.660,0.934,0.595,1.132,0.804,0.393,0.669,0.628,��쐼,6.0,��
2020/07/11,12:30,0.661,0.936,0.594,1.134,0.804,0.393,0.669,0.630,��쐼,6.8,��
2020/07/11,12:40,0.662,0.937,0.594,1.131,0.803,0.394,0.669,0.628,�쐼,6.9,��
2020/07/11,12:50,0.662,0.938,0.595,1.134,0.806,0.395,0.668,0.628,�쐼,5.9,��
2020/07/11,13:00,0.660,0.935,0.594,1.133,0.804,0.394,0.670,0.627,��쐼,4.6,��
2020/07/11,13:10,0.659,0.937,0.594,1.133,0.803,0.395,0.668,0.628,��,3.1,�L
2020/07/11,13:20,0.660,0.937,0.594,1.133,0.806,0.395,0.668,0.627,��쐼,3.9,��
2020/07/11,13:30,0.662,0.938,0.592,1.133,0.803,0.396,0.668,0.629,��쐼,6.1,��
2020/07/11,13:40,0.660,0.940,0.594,1.134,0.803,0.396,0.669,0.627,�쐼,5.9,��
2020/07/11,13:50,0.661,0.939,0.594,1.134,0.803,0.396,0.669,0.629,��쐼,7.8,��
2020/07/11,14:00,0.662,0.935,0.596,1.135,0.804,0.395,0.668,0.627,��쐼,8.2,��
2020/07/11,14:10,0.662,0.935,0.595,1.135,0.802,0.395,0.669,0.628,��쐼,8.8,��
2020/07/11,14:20,0.663,0.937,0.596,1.134,0.807,0.396,0.669,0.630,��쐼,7.8,��
2020/07/11,14:30,0.662,0.940,0.595,1.133,0.802,0.397,0.670,0.630,��쐼,6.9,��
2020/07/11,14:40,0.662,0.938,0.594,1.135,0.805,0.395,0.669,0.630,��,5.9,��
2020/07/11,14:50,0.664,0.940,0.595,1.134,0.805,0.396,0.669,0.630,��,7.0,��
2020/07/11,15:00,0.660,0.938,0.596,1.135,0.807,0.398,0.670,0.630,��,7.3,��
2020/07/11,15:10,0.664,0.937,0.597,1.134,0.806,0.396,0.669,0.629,��,7.2,��
2020/07/11,15:20,0.664,0.937,0.596,1.136,0.807,0.396,0.672,0.629,��,6.7,��
2020/07/11,15:30,0.663,0.937,0.596,1.135,0.807,0.398,0.671,0.628,��쐼,6.3,��
2020/07/11,15:40,0.663,0.939,0.595,1.135,0.806,0.396,0.669,0.630,��쐼,4.8,��
2020/07/11,15:50,0.663,0.941,0.598,1.136,0.803,0.398,0.672,0.630,���쐼,3.8,��
2020/07/11,16:00,0.663,0.939,0.598,1.134,0.805,0.397,0.671,0.629,���쐼,3.1,��
2020/07/11,16:10,0.662,0.941,0.597,1.136,0.805,0.397,0.670,0.630,���쐼,2.0,�L
2020/07/11,16:20,0.665,0.938,0.595,1.134,0.807,0.395,0.670,0.631,���k��,1.5,��
2020/07/11,16:30,0.664,0.940,0.597,1.134,0.805,0.397,0.669,0.631,���k��,2.2,��
2020/07/11,16:40,0.665,0.939,0.596,1.135,0.804,0.396,0.670,0.629,��,2.3,��
2020/07/11,16:50,0.663,0.940,0.595,1.134,0.806,0.399,0.671,0.633,��쐼,1.9,��
2020/07/11,17:00,0.663,0.939,0.597,1.137,0.808,0.397,0.670,0.631,��,2.6,��
2020/07/11,17:10,0.665,0.938,0.596,1.136,0.807,0.397,0.671,0.631,��쓌,2.9,��
2020/07/11,17:20,0.662,0.940,0.597,1.136,0.807,0.396,0.672,0.630,��,2.5,��
2020/07/11,17:30,0.663,0.939,0.596,1.137,0.807,0.397,0.672,0.632,��,1.7,��
2020/07/11,17:40,0.663,0.939,0.596,1.136,0.807,0.396,0.671,0.631,��,0.8,��
2020/07/11,17:50,0.663,0.938,0.597,1.136,0.807,0.397,0.670,0.630,-,CALM,��
2020/07/11,18:00,0.663,0.939,0.597,1.136,0.806,0.397,0.671,0.632,���쐼,1.2,��
2020/07/11,18:10,0.663,0.938,0.597,1.135,0.808,0.397,0.672,0.632,�쐼,1.7,�L
2020/07/11,18:20,0.662,0.941,0.595,1.137,0.805,0.396,0.669,0.631,�k�k��,3.6,�L
2020/07/11,18:30,0.660,0.939,0.597,1.137,0.804,0.395,0.669,0.628,�k,10.3,�L
2020/07/11,18:40,0.660,0.939,0.596,1.139,0.807,0.396,0.670,0.629,�k,8.9,�L
2020/07/11,18:50,0.658,0.938,0.595,1.136,0.807,0.395,0.670,0.629,�k,7.2,��
2020/07/11,19:00,0.660,0.937,0.596,1.137,0.805,0.395,0.669,0.628,�k�k��,5.6,�L
2020/07/11,19:10,0.659,0.937,0.596,1.136,0.805,0.394,0.668,0.629,�k�k��,6.1,�L
2020/07/11,19:20,0.659,0.930,0.596,1.133,0.801,0.393,0.666,0.626,��,3.2,�L
2020/07/11,19:30,0.657,0.927,0.595,1.129,0.797,0.393,0.660,0.623,�k�k��,4.4,�L
2020/07/11,19:40,0.657,0.927,0.593,1.126,0.799,0.391,0.660,0.622,�k,3.0,�L
2020/07/11,19:50,0.658,0.930,0.590,1.128,0.797,0.392,0.659,0.623,�k,2.6,�L
2020/07/11,20:00,0.659,0.927,0.592,1.129,0.798,0.392,0.659,0.622,�k��,1.1,�L
2020/07/11,20:10,0.653,0.913,0.588,1.115,0.787,0.391,0.657,0.619,�쓌,4.1,�L
2020/07/11,20:20,0.646,0.907,0.588,1.100,0.781,0.390,0.652,0.613,��쐼,4.0,�L
2020/07/11,20:30,0.652,0.910,0.590,1.105,0.786,0.390,0.653,0.618,��쓌,1.1,�L
2020/07/11,20:40,0.653,0.912,0.591,1.106,0.785,0.392,0.656,0.617,-,CALM,�L
2020/07/11,20:50,0.653,0.912,0.590,1.106,0.789,0.393,0.656,0.620,�k�k��,0.9,�L
2020/07/11,21:00,0.654,0.913,0.589,1.108,0.785,0.391,0.655,0.620,�k�k��,0.8,��
2020/07/11,21:10,0.653,0.914,0.590,1.109,0.787,0.392,0.657,0.618,���k��,0.9,�L
2020/07/11,21:20,0.651,0.912,0.588,1.108,0.787,0.391,0.656,0.619,���k��,1.2,��
2020/07/11,21:30,0.651,0.913,0.588,1.106,0.785,0.390,0.657,0.621,���쐼,1.2,��
2020/07/11,21:40,0.650,0.910,0.586,1.106,0.785,0.390,0.657,0.620,���쐼,1.2,��
2020/07/11,21:50,0.649,0.914,0.588,1.107,0.787,0.390,0.656,0.620,��,2.2,��
2020/07/11,22:00,0.650,0.913,0.588,1.107,0.784,0.388,0.656,0.618,��,6.2,��
2020/07/11,22:10,0.648,0.913,0.585,1.105,0.785,0.388,0.656,0.621,��,7.1,��
2020/07/11,22:20,0.648,0.913,0.587,1.105,0.782,0.387,0.657,0.620,��,7.0,��
2020/07/11,22:30,0.646,0.910,0.584,1.106,0.783,0.386,0.658,0.619,��,6.9,��
2020/07/11,22:40,0.647,0.911,0.583,1.105,0.785,0.385,0.656,0.620,��쐼,6.4,��
2020/07/11,22:50,0.647,0.909,0.584,1.108,0.783,0.387,0.657,0.620,��쐼,6.2,��
2020/07/11,23:00,0.647,0.909,0.583,1.106,0.784,0.387,0.657,0.620,��,7.0,��
2020/07/11,23:10,0.645,0.911,0.585,1.109,0.783,0.386,0.656,0.620,��쐼,5.9,��
2020/07/11,23:20,0.646,0.909,0.585,1.110,0.783,0.386,0.657,0.620,��쐼,7.2,��
2020/07/11,23:30,0.645,0.910,0.585,1.108,0.783,0.386,0.658,0.622,��쐼,7.4,��
2020/07/11,23:40,0.648,0.911,0.585,1.107,0.783,0.387,0.659,0.620,��쐼,6.8,��
2020/07/11,23:50,0.648,0.910,0.586,1.108,0.785,0.388,0.659,0.621,��,5.1,�L
